Iowa City, IA

7:45 PM CST on February 23, 2017 (GMT -0600)
Iowa City Municipal

Weather History for KIOW - April, 2013

Change the Weather History Date:

Friday, April 5, 2013

  Actual Average Record
Temperature  
Mean Temperature 44 °F 48 °F  
Max Temperature 56 °F 58 °F 79 °F (1988)
Min Temperature 31 °F 37 °F 21 °F (2002)
Degree Days  
Heating Degree Days 21 18  
Month to date heating degree days 137 92  
Since 1 July heating degree days 5877 5859  
Cooling Degree Days 0 0  
Month to date cooling degree days 0 0  
Year to date cooling degree days 0 0  
Moisture  
Dew Point 27 °F    
Average Humidity 53    
Maximum Humidity 78    
Minimum Humidity 27    
Precipitation  
Precipitation 0.00 in 0.09 in 0.73 in (1965)
Month to date precipitation 0.00 0.37  
Year to date precipitation 4.88 4.75  
Sea Level Pressure  
Sea Level Pressure 30.13 in    
Wind  
Wind Speed 8 mph (East)    
Max Wind Speed 18 mph    
Max Gust Speed 23 mph    
Visibility 10 miles    
Events      
T = Trace of Precipitation, MM = Missing Value Source: NWS Daily Summary

Daily Weather History Graph

Daily Weather History Graph

Search for Another Location

Airport or City:

Trip Planner

Search our weather history database for the weather conditions in past years. The results will help you decide how hot, cold, wet, or windy it might be!

Date:

Astronomy

Apr. 05, 2013 Rise Set
Actual Time 6:42 AM CDT 7:36 PM CDT
Civil Twilight 6:13 AM CDT 8:04 PM CDT
Nautical Twilight 5:40 AM CDT 8:38 PM CDT
Astronomical Twilight 5:05 AM CDT 9:13 PM CDT
Moon 3:53 AM CDT (4/5) 2:57 PM CDT (4/5)
Length of Visible Light 13h 50m
Length of Day
12h 54m
Waning Crescent, 23% of the Moon is Illuminated
Apr 5
Waning Crescent
Apr 10
New
Apr 18
First Quarter
Apr 25
Full
May 2
Last Quarter

Hourly Weather History & Observations

Time (CDT) Temp. Windchill Dew Point Humidity Pressure Visibility Wind Dir Wind Speed Gust Speed Precip Events Conditions
12:52 AM 45.0 °F 39.3 °F 33.1 °F 63% 30.11 in 10.0 mi North 11.5 mph - N/A   Mostly Cloudy
1:52 AM 44.1 °F 39.5 °F 33.1 °F 65% 30.12 in 10.0 mi North 8.1 mph - N/A   Partly Cloudy
2:52 AM 37.0 °F 33.3 °F 30.9 °F 79% 30.14 in 10.0 mi NW 4.6 mph - N/A   Clear
3:52 AM 37.0 °F 34.5 °F 30.9 °F 79% 30.15 in 10.0 mi WNW 3.5 mph - N/A   Clear
4:52 AM 35.1 °F 32.2 °F 28.9 °F 78% 30.17 in 10.0 mi NW 3.5 mph - N/A   Clear
5:52 AM 32.0 °F 28.7 °F 27.0 °F 82% 30.19 in 10.0 mi WNW 3.5 mph - N/A   Clear
6:52 AM 36.0 °F 30.3 °F 27.0 °F 70% 30.20 in 10.0 mi North 6.9 mph - N/A   Scattered Clouds
7:52 AM 37.9 °F 32.1 °F 26.1 °F 62% 30.22 in 10.0 mi NNE 8.1 mph - N/A   Clear
8:52 AM 41.0 °F 34.7 °F 27.0 °F 57% 30.23 in 10.0 mi ENE 10.4 mph - N/A   Clear
9:52 AM 45.0 °F 39.7 °F 28.0 °F 52% 30.24 in 10.0 mi East 10.4 mph 16.1 mph N/A   Clear
11:52 AM 51.1 °F - 27.0 °F 39% 30.21 in 10.0 mi ESE 15.0 mph - N/A   Clear
12:52 PM 53.1 °F - 26.1 °F 35% 30.19 in 10.0 mi SSE 10.4 mph 16.1 mph N/A   Partly Cloudy
1:52 PM 54.0 °F - 23.0 °F 30% 30.17 in 10.0 mi ESE 6.9 mph - N/A   Mostly Cloudy
2:52 PM 54.0 °F - 23.0 °F 30% 30.14 in 10.0 mi Variable 3.5 mph - N/A   Mostly Cloudy
3:52 PM 55.0 °F - 23.0 °F 29% 30.13 in 10.0 mi SE 8.1 mph - N/A   Mostly Cloudy
4:52 PM 55.0 °F - 23.0 °F 29% 30.10 in 10.0 mi East 10.4 mph - N/A   Overcast
5:52 PM 55.0 °F - 24.1 °F 30% 30.08 in 10.0 mi ESE 11.5 mph 17.3 mph N/A   Mostly Cloudy
6:52 PM 54.0 °F - 24.1 °F 31% 30.06 in 10.0 mi ESE 8.1 mph - N/A   Clear
7:52 PM 52.0 °F - 25.0 °F 35% 30.03 in 10.0 mi East 11.5 mph - N/A   Clear
8:52 PM 50.0 °F - 25.0 °F 38% 30.02 in 10.0 mi East 9.2 mph - N/A   Clear
9:52 PM 48.0 °F - 25.0 °F 41% 30.03 in 10.0 mi East 8.1 mph - N/A   Clear
10:52 PM 46.0 °F 41.9 °F 27.0 °F 47% 30.00 in 10.0 mi SE 8.1 mph - N/A   Clear
11:52 PM 46.9 °F - 27.0 °F 46% 29.99 in 10.0 mi ESE 8.1 mph - N/A   Clear